Probability
88 85 83 85 86 84 83 79 71 69 68 65 61 58 57 48 32 26 34 49 60 64 63 54 38 27 23 18 11 7 5 4 2 1 0 0 0 0 0 0 0 0 0
83 82 80 80 77 73 69 65 60 59 60 59 57 57 60 56 45 37 39 47 55 57 56 49 38 29 24 19 13 9 7 7 5 3 1 0 0 0 0 0 0 0 0
73 74 72 67 63 56 49 45 43 45 47 46 46 50 57 59 54 47 44 47 49 48 44 41 38 32 25 19 13 11 10 10 9 6 2 1 1 0 0 0 0 0 0
61 62 59 54 49 44 36 31 31 33 33 32 32 36 44 49 48 43 41 42 40 36 32 30 31 29 23 15 11 13 15 12 10 7 4 3 2 1 0 0 0 0 0
47 49 46 41 37 34 27 23 23 23 22 21 20 21 28 35 35 31 31 30 27 24 21 19 19 19 17 13 12 16 17 13 8 5 4 4 4 3 1 1 1 0 0
32 34 33 29 26 22 18 15 14 14 14 13 11 12 17 22 24 23 21 18 16 15 14 15 14 12 11 12 14 16 15 11 6 3 2 3 5 5 2 1 0 0 0
18 19 20 20 17 13 10 8 7 6 6 6 6 7 9 13 15 16 14 12 9 9 11 14 15 13 10 8 9 10 10 9 6 2 1 3 5 5 2 0 0 0 0
8 8 11 12 12 9 6 4 3 2 2 2 3 5 6 7 9 10 10 9 7 7 8 10 14 16 14 8 3 3 6 8 6 2 0 1 3 3 2 0 0 0 0
3 3 4 6 8 9 7 5 3 2 1 1 2 5 5 5 5 7 7 7 7 6 4 5 12 18 19 12 4 1 3 6 5 2 0 0 1 1 1 0 0 0 0
2 1 1 3 5 7 8 6 5 3 2 1 2 4 4 3 3 3 3 4 6 4 2 2 8 16 18 13 5 1 1 3 2 1 0 0 0 0 0 0 0 0 0
1 0 0 1 2 3 5 5 5 4 2 2 2 3 3 2 1 1 0 1 3 3 2 2 6 11 14 10 4 1 1 1 1 0 0 0 0 0 0 0 0 0 0
0 0 0 0 0 1 1 2 3 3 2 3 3 3 3 2 1 1 1 0 0 2 3 6 8 10 10 8 3 1 1 0 0 0 0 0 0 0 0 0 0 0 0
0 0 1 1 0 0 0 0 1 1 1 3 4 4 4 3 3 3 4 3 2 3 6 9 11 11 12 12 5 0 1 0 0 0 0 0 0 0 0 0 0 0 0
0 1 2 2 1 0 0 0 0 0 0 1 3 4 5 5 5 7 9 8 6 5 7 11 17 21 24 20 7 0 1 0 0 0 0 0 0 0 0 0 0 0 0
0 1 1 2 2 1 0 0 0 0 0 0 1 3 6 5 6 9 12 13 9 6 6 14 27 38 38 23 7 2 2 1 0 0 0 0 0 0 0 0 0 0 0
0 0 0 1 2 2 1 1 0 0 0 0 0 2 4 5 7 9 12 13 12 8 7 18 38 53 45 22 7 5 3 1 0 0 0 0 0 0 0 0 0 0 0
0 0 0 0 1 1 2 2 1 0 0 0 0 0 2 4 7 8 9 10 13 12 11 22 44 60 52 30 13 6 2 0 0 0 0 0 0 0 0 0 0 0 0
0 0 0 0 0 0 1 2 1 0 0 0 0 0 0 2 6 9 9 8 11 14 16 25 43 58 57 41 20 6 1 0 0 0 0 0 0 0 0 0 0 0 0
0 0 0 0 0 0 0 0 0 0 0 0 0 0 0 1 5 9 10 8 9 13 18 25 37 51 54 42 22 7 3 1 0 0 0 0 0 0 0 0 0 0 0
0 0 0 0 0 0 0 0 0 0 0 1 1 0 0 0 2 5 8 9 8 10 14 20 30 43 47 34 17 7 4 2 0 0 0 0 0 0 0 0 0 0 0
0 0 0 0 0 0 0 0 0 0 0 1 1 1 0 0 0 1 3 6 7 8 11 14 22 34 38 28 13 6 3 1 0 0 0 0 0 0 0 0 0 0 0
0 0 0 0 0 0 0 0 0 0 0 1 1 1 1 0 0 0 1 2 4 6 8 10 16 26 30 24 13 4 1 1 1 0 0 0 0 0 0 0 0 0 0
0 0 0 0 0 0 0 0 0 0 0 0 1 1 1 0 0 0 0 0 1 2 3 5 10 18 22 20 11 4 1 2 2 1 0 0 0 0 0 0 0 0 0
0 0 0 0 0 0 0 0 0 0 0 0 0 0 0 0 0 0 0 0 0 0 0 1 4 9 12 11 7 3 2 2 2 1 0 0 0 0 0 0 0 0 0
0 0 0 0 0 0 0 0 0 0 0 0 0 0 0 0 0 0 0 0 0 0 0 0 0 2 3 3 2 2 1 1 1 0 0 0 0 0 0 0 0 0 0
0 0 0 0 0 0 0 0 0 0 0 0 0 0 0 0 0 0 0 0 0 0 0 0 0 0 0 0 1 1 1 0 0 0 0 0 0 0 0 0 0 0 0
Wind_Speed
4 5 4 4 4 4 6 7 7 9 9 9 8 9 9 10 8 5 4 14 17 17 17 17 17 17 16 16 16 17 17 17 17 15 14 14 13 13 13 12 12 11 10
4 5 5 5 5 5 5 5 7 7 7 6 8 9 8 9 8 6 4 8 14 15 15 17 18 18 18 18 17 17 18 18 17 17 16 15 14 14 14 14 13 12 12
5 5 5 5 5 5 6 5 6 6 6 7 8 9 7 8 7 7 6 5 7 13 16 17 18 18 19 19 19 18 18 18 17 17 17 16 16 15 15 15 15 14 13
5 4 4 4 4 4 5 5 6 6 6 6 6 7 7 6 8 7 7 6 5 7 13 19 19 18 20 21 21 20 19 18 18 18 18 18 17 16 16 16 16 15 15
5 4 3 3 3 3 4 6 6 5 6 6 6 7 7 7 8 9 9 9 8 8 8 14 21 20 22 23 22 21 20 19 19 19 19 19 19 18 17 16 16 16 16
5 4 3 3 3 2 3 4 5 5 5 5 8 8 7 8 7 8 9 9 9 12 12 11 11 15 22 21 20 20 20 20 20 20 20 20 19 18 18 17 16 17 17
4 3 3 3 2 2 2 3 3 4 4 4 4 5 6 9 9 8 8 8 10 12 12 11 9 9 10 19 20 20 21 21 20 20 19 20 19 18 17 17 16 17 17
3 4 3 3 3 2 2 2 2 2 3 3 3 3 3 6 7 10 8 8 9 8 10 12 11 10 8 8 12 20 20 20 21 20 19 18 18 18 17 17 16 16 17
3 2 3 3 3 3 2 2 2 1 3 3 3 3 3 3 3 4 8 7 7 6 6 7 10 11 10 7 9 17 22 20 21 21 20 19 18 17 17 17 17 16 17
5 3 2 2 3 3 3 3 2 2 2 3 3 4 4 2 1 1 2 5 7 6 5 5 8 9 9 7 8 14 20 20 20 20 20 20 18 17 17 17 18 18 18
6 5 3 2 2 2 2 3 3 3 2 2 3 3 4 4 3 2 3 3 3 5 4 4 3 4 7 6 6 11 17 18 17 17 17 18 18 18 18 19 20 19 19
4 4 3 1 1 2 2 3 3 4 3 3 3 3 3 3 4 4 3 4 4 4 6 4 3 3 4 4 6 10 15 15 15 15 15 15 16 18 19 20 21 20 20
6 5 5 2 2 2 3 3 3 4 4 4 4 4 3 4 5 5 4 3 3 3 4 4 4 3 4 5 6 9 10 12 12 13 13 13 14 15 16 18 19 19 19
7 7 6 4 4 4 5 4 3 4 4 4 5 5 4 4 5 4 4 4 2 2 4 4 4 4 3 5 8 8 6 9 10 11 12 12 12 13 14 15 16 16 16
8 8 8 8 7 6 6 5 4 5 4 4 4 4 4 4 5 5 4 4 3 3 4 4 4 5 5 6 7 4 5 7 8 9 10 11 12 12 12 12 13 13 13
8 8 8 8 8 7 7 6 6 6 6 5 4 4 4 3 4 5 5 4 3 3 2 3 4 6 7 7 6 6 7 8 5 6 7 9 10 10 10 10 10 10 10
8 8 8 9 9 9 8 7 7 7 7 6 6 6 6 4 4 5 5 4 3 3 3 1 3 7 8 8 7 7 7 5 5 6 7 8 8 9 9 8 8 8 8
8 9 9 9 10 10 9 9 9 10 8 8 8 7 6 5 6 4 4 5 5 3 2 2 4 5 7 9 8 7 6 7 6 9 10 10 10 10 10 10 9 9 9
9 9 9 9 10 10 10 10 9 9 9 9 8 8 7 7 6 5 5 5 5 4 3 3 4 5 5 7 8 8 8 6 7 8 11 12 12 12 12 12 12 12 11
9 10 10 10 10 10 11 11 11 10 9 9 9 8 8 8 7 7 6 6 5 5 4 3 4 6 6 8 8 8 7 6 5 6 8 9 13 14 14 13 14 14 13
12 10 10 10 10 10 11 11 10 12 10 10 9 9 9 10 11 8 6 5 6 5 5 4 5 5 6 8 8 7 8 7 6 5 6 6 7 7 8 11 13 15 14
10 10 11 12 12 12 13 11 8 8 7 8 9 9 9 9 11 12 11 9 7 7 6 6 5 7 8 8 7 9 9 9 5 4 5 5 5 6 5 6 10 13 15
11 11 11 12 12 12 14 14 13 9 9 8 9 8 10 11 11 10 11 12 10 8 7 5 6 6 7 9 9 11 10 9 6 7 6 6 6 7 6 7 11 13 14
10 10 11 12 11 12 14 13 13 11 10 10 9 9 9 8 8 7 9 10 9 9 8 6 5 5 4 5 7 9 10 8 8 5 5 6 6 6 7 6 9 12 13
10 10 11 11 11 11 12 12 11 8 8 9 9 9 9 9 9 10 8 8 8 7 9 9 7 5 5 6 5 7 11 11 9 5 3 5 7 7 6 5 6 10 11
10 10 10 9 10 10 10 11 11 7 7 7 6 7 9 9 10 10 8 7 8 7 7 8 7 6 6 6 8 9 11 12 10 6 4 6 9 6 5 4 4 4 6
Wind_Direction
260 270 272 271 261 241 219 217 220 219 218 221 225 220 215 216 225 226 182 184 189 191 191 194 199 204 207 207 207 205 204 202 200 198 198 202 202 198 195 194 192 190 187
281 271 271 268 265 265 261 239 233 231 226 225 226 228 223 220 221 222 207 193 196 198 202 204 206 209 210 210 209 207 206 205 202 199 198 201 204 202 200 198 197 195 192
305 289 276 270 266 270 273 271 258 244 231 229 228 230 228 227 221 215 219 209 202 209 213 214 212 211 212 213 211 209 207 206 203 200 200 201 202 203 202 200 198 197 196
326 308 295 288 286 283 276 268 257 255 249 240 233 233 229 222 224 215 213 213 212 219 219 221 216 214 213 215 214 210 206 205 202 201 201 201 203 205 204 201 200 199 198
343 328 312 305 295 280 279 273 256 244 247 248 244 234 228 223 216 219 213 213 214 220 225 218 214 215 216 217 215 212 208 206 203 203 204 204 205 206 205 203 201 201 200
354 337 309 312 309 298 300 288 277 263 246 240 244 242 223 223 215 213 211 210 209 214 221 218 204 215 217 217 214 212 211 208 205 204 205 206 207 207 206 204 202 202 202
348 321 321 311 300 285 295 305 276 269 251 240 235 248 241 223 214 209 208 209 209 212 212 207 197 201 207 214 213 211 211 210 208 206 206 208 207 205 205 204 204 204 204
339 332 334 312 309 294 288 290 274 275 278 255 234 237 246 232 220 210 198 204 213 209 208 202 196 194 193 192 208 211 212 211 210 208 208 208 206 204 204 203 204 206 207
303 294 313 319 321 309 301 286 266 259 276 276 250 234 237 236 233 210 198 198 197 202 205 200 195 192 192 185 191 207 210 209 210 210 208 207 205 203 201 201 203 206 209
291 275 264 300 319 315 317 302 317 283 272 282 293 277 280 308 294 308 215 201 188 195 212 212 200 186 186 185 187 189 202 206 208 210 208 206 204 203 202 204 206 208 210
268 258 240 231 277 292 318 325 324 306 276 263 272 290 298 291 250 231 232 218 191 186 196 214 205 174 177 177 177 183 190 198 202 205 205 205 205 205 206 209 212 214 213
285 279 271 224 256 297 314 308 310 302 288 272 266 264 274 281 274 255 232 208 194 198 184 188 188 173 165 166 178 170 179 187 194 199 203 205 206 207 210 212 216 218 218
316 315 309 287 278 280 279 272 275 284 288 282 275 268 263 259 273 279 264 243 207 186 164 166 172 165 165 132 127 145 166 180 189 195 200 203 206 208 209 211 214 217 218
294 291 302 296 272 256 260 255 258 259 261 268 275 280 278 271 271 276 277 269 243 198 169 172 162 162 146 123 134 143 151 171 183 192 196 199 203 205 206 208 211 214 215
305 313 322 310 293 274 257 252 249 249 250 249 258 266 267 276 281 280 283 283 253 217 199 186 158 149 130 114 140 145 131 155 175 187 192 194 196 198 200 202 205 207 209
291 292 289 288 284 278 261 242 243 241 232 232 232 246 255 261 278 282 277 280 285 259 229 194 167 148 142 136 141 117 108 121 125 160 172 180 184 187 190 192 194 196 197
300 295 291 288 284 278 271 254 243 246 241 236 233 230 230 233 253 275 278 271 267 274 258 224 152 138 131 128 128 123 134 115 92 105 130 140 148 154 158 161 165 169 171
295 294 290 287 283 280 272 263 250 245 238 235 231 229 227 225 224 240 261 269 266 259 258 228 144 141 140 134 136 133 122 106 96 90 99 106 111 117 122 125 128 130 132
292 292 289 286 283 281 278 274 263 249 240 235 231 228 224 220 220 223 232 243 251 250 244 225 172 153 144 139 131 117 109 108 103 102 94 93 97 101 104 108 111 113 113
293 288 285 283 281 279 276 274 271 260 245 237 232 230 226 220 217 216 224 229 231 236 234 224 195 161 153 149 138 133 129 125 120 109 92 95 97 95 99 103 108 109 108
292 291 290 286 281 277 269 262 261 262 251 240 234 228 229 222 219 212 212 210 215 218 220 212 202 173 159 160 159 149 139 127 114 124 121 118 109 99 94 100 105 111 109
292 290 287 285 281 277 281 286 282 277 271 256 242 232 233 231 223 209 204 196 200 211 211 207 201 188 176 170 161 152 146 144 139 152 135 125 118 108 101 91 108 113 113
293 288 284 281 277 272 271 269 264 262 262 259 249 236 236 233 212 205 201 200 203 211 208 207 203 198 179 172 163 159 160 158 140 152 134 115 105 92 85 94 111 114 115
291 287 283 280 276 272 266 257 251 253 255 250 241 231 224 242 235 210 201 203 205 205 204 203 205 203 176 159 166 160 153 130 118 129 127 115 113 103 97 96 106 114 117
292 287 284 280 276 271 262 250 238 250 248 247 241 231 219 222 228 216 205 204 204 202 203 199 190 184 178 161 165 153 148 145 143 143 128 117 126 114 102 101 108 115 119
292 291 287 284 280 275 258 237 225 243 245 243 237 239 231 223 213 205 207 206 206 200 187 186 184 182 185 178 179 172 162 157 149 148 160 130 146 137 120 118 129 135 121